Location: WWIN Observatory
(34.8953°N, 91.9583°W)
Time: 06:08:45
(UTC-05:00)

Daily predictions for brighter satellites

Satellite Brightness Start Highest point End
(mag) Time Altitude Azimuth Time Altitude Azimuth Time Altitude Azimuth
Landsat 4 4.1 18:47:31 10° N 18:51:13 67° WNW 18:54:54 10° SSW
Ariane Rocket 3.6 18:46:13 10° S 18:51:15 64° WSW 18:56:19 10° NNW
CZ-2C R/B 3.9 18:46:56 10° N 18:51:27 76° WNW 18:55:52 10° SSW
Atlas Centaur 2 2.4 18:47:24 10° WSW 18:51:40 51° S 18:57:05 10° ESE
ERS-2 2.1 18:48:53 10° SSE 18:52:34 77° ENE 18:56:16 10° N
ASTRO E2 3.3 18:49:38 10° WSW 18:53:30 49° S 18:57:22 10° E
Cosmos 921 Rocket 4.4 18:52:57 10° NNE 18:56:10 19° ENE 18:59:20 10° ESE
Cosmos 1500 Rocket 4.1 18:54:57 10° NNE 18:58:57 35° E 19:02:53 10° SE
Cosmos 1703 3.9 18:55:44 10° NNE 18:59:20 34° E 19:02:55 10° SE
Cosmos 2366 rocket 4.0 18:56:24 10° S 19:02:38 84° E 19:08:50 10° N
SPOT 3 Rocket 3.8 18:58:49 10° SE 19:03:44 46° ENE 19:08:41 10° N
Meteor 1-28 Rocket 4.0 19:00:24 10° N 19:04:07 56° WNW 19:07:47 10° SSW
CZ-4 R/B 4.4 19:00:44 10° SSE 19:04:50 72° ENE 19:08:58 10° N
Cosmos 2056 Rocket 3.5 19:01:47 10° NNW 19:07:07 89° WSW 19:12:19 10° SSE
Cosmos 1726 3.8 19:06:05 10° ESE 19:08:07 14° E 19:10:08 10° NE
SL-16 R/B 2.6 19:04:58 10° NNW 19:10:37 70° WSW 19:16:15 10° S
Cosmos 1908 3.7 19:08:14 10° SSE 19:11:52 38° E 19:15:31 10° NNE
MOS 1 4.2 19:07:47 10° SSE 19:13:24 72° ENE 19:19:04 10° N
USA 267 3.9 19:09:51 10° ENE 19:15:41 34° SE 19:21:29 10° S
Cosmos 1400 Rocket 2.7 19:11:49 10° N 19:15:51 74° E 19:19:47 10° SSE
CZ-4 R/B 2.7 19:12:04 10° S 19:16:08 47° W 19:20:12 10° NNW
GENESIS II 4.4 19:13:52 10° SSW 19:17:49 77° WNW 19:21:48 10° NNE
Cosmos 2098 Rocket 4.1 19:14:51 10° SE 19:18:19 26° E 19:22:32 10° NNE
Cosmos 44 3.5 19:16:18 10° S 19:20:23 39° ESE 19:24:23 10° NE
METEOR-M 4.1 19:15:31 10° SSE 19:20:51 81° ENE 19:26:13 10° N
H-2A R/B 4.2 19:19:22 15° E 19:20:51 19° ENE 19:23:36 10° NNE
COSMO-SKYMED 1 2.8 19:17:08 10° N 19:21:29 76° WNW 19:25:48 10° SSW
Cosmos 1452 Rocket 3.7 19:19:45 10° N 19:24:51 50° ENE 19:29:56 10° SE
NOAA 12 4.1 19:24:43 10° SSE 19:29:55 63° ENE 19:35:11 10° N
SL-24 R/B - RUBIN 2 3.8 19:29:10 10° NNW 19:33:48 49° ENE 19:37:01 17° SE
FREGAT/IRIS 4.4 19:37:46 18° NNE 19:37:46 18° NNE 19:38:54 10° NNE
Cosmos 1805 Rocket 4.3 19:33:31 10° NNE 19:37:22 30° ENE 19:39:29 20° ESE
SAR-Lupe-3 4.4 19:34:31 10° NNE 19:38:05 66° ESE 19:41:37 10° S
Cosmos 1821 Rocket 4.1 19:33:46 10° SSE 19:39:40 52° E 19:45:39 10° NNE
Cosmos 44 Rocket 3.1 19:35:01 10° SSW 19:39:40 64° ESE 19:43:51 13° NE
Cosmos 1626 3.5 19:38:12 10° NNW 19:41:44 41° W 19:45:14 10° SSW
YAOGAN 1 4.3 19:38:00 10° SSW 19:41:57 35° W 19:45:56 10° NNW
Cosmos 1934 Rocket 4.3 19:39:23 10° SSE 19:45:18 43° E 19:51:15 10° NNE
DELTA 2 R/B (1) 3.7 19:39:52 10° WNW 19:45:24 61° NNE 19:48:17 28° E
Cosmos 2239 Rocket 4.4 19:41:26 10° S 19:47:27 61° E 19:53:29 10° NNE
Centaur AC-112 3.7 19:41:47 10° WSW 19:48:25 28° SSW 19:49:56 20° SSE
Abrixas 3.2 19:46:26 10° SW 19:47:49 31° SSW 19:47:49 31° SSW
Tiangong 1 3.6 19:47:52 10° WSW 19:49:22 14° SW 19:50:52 10° S
ISS -0.3 19:49:26 10° WSW 19:49:39 10° SW 19:49:52 10° SW
Cosmos 2360 Rocket 2.3 19:46:24 10° NNW 19:52:04 81° WSW 19:57:44 10° SSE
COSMOS 2428 3.0 19:46:46 10° N 19:52:10 42° ENE 19:54:29 29° ESE
Iridium 4 Rocket 3.6 19:47:25 10° S 19:52:47 81° E 19:58:36 10° N
Aureole 2 4.1 19:51:40 10° NNW 19:54:49 78° ENE 19:56:03 36° SSE
Cosmos 2333 Rocket 3.4 19:50:49 10° N 19:54:58 23° NE 19:54:58 23° NE
Cosmos 2219 3.1 19:51:53 10° SSW 19:57:36 74° ESE 20:03:21 10° NNE
Cosmos 2322 Rocket 4.5 19:54:45 10° NW 19:59:14 25° WSW 20:03:43 10° SSW
Cosmos 1315 Rocket 3.2 19:55:16 10° NNW 19:59:20 65° W 20:03:23 10° S
Cosmos 1048 Rocket 4.0 19:55:30 10° SSW 20:00:39 83° WNW 20:05:48 10° NNE
FengYun 1-2 T 4.1 20:00:10 10° SSE 20:05:38 70° ENE 20:11:06 10° N
Cosmos 1420 Rocket 4.0 20:04:55 10° NNW 20:10:15 83° WSW 20:15:31 10° SSE
Thor Agena Rocket 3.8 20:05:49 10° N 20:10:52 67° WNW 20:15:51 10° SSW
Cosmos 2123 Rocket 4.1 20:06:16 10° N 20:12:18 50° E 20:14:35 35° SE
APEX 4.5 20:10:11 10° SW 20:13:17 32° WNW 20:14:29 23° NNW
BREEZE-M R/B 3.9 20:11:15 10° SW 20:12:20 24° SSW 20:12:20 24° SSW
Cosmos 1605 Rocket 4.0 20:08:02 10° SSE 20:13:52 49° E 20:19:42 10° NNE
FENGYUN 3A 4.4 20:10:25 10° S 20:15:39 52° W 20:20:56 10° NNW
CZ-4C R/B 2.2 20:11:07 10° SW 20:16:11 74° WNW 20:20:07 20° NNE
Delta 2 Rocket 3.5 20:15:06 10° W 20:18:02 54° WNW 20:18:02 54° WNW
MOS 1-B Rocket 4.1 20:19:10 47° ENE 20:19:10 47° ENE 20:24:33 10° N
SJ-6B 4.1 20:21:08 29° N 20:21:08 29° N 20:23:03 10° N
RESURS DK-1 3.8 20:16:06 10° NW 20:19:56 37° WSW 20:23:29 11° S
Cosmos 2221 4.2 20:17:58 10° SW 20:21:51 33° WNW 20:25:48 10° NNW
Cosmos 2322 4.4 20:16:56 10° NNW 20:22:31 55° WSW 20:28:03 10° S
ALOS 3.8 20:19:19 10° SSW 20:23:35 35° W 20:27:52 10° NNW
Resurs 01 Rocket 4.1 20:37:34 12° N 20:37:34 12° N 20:37:53 10° N
ASTRO E2 4.0 20:30:01 10° W 20:32:48 35° SW 20:32:48 35° SW
Atlas Centaur 2 2.9 20:35:36 10° W 20:40:27 41° SSW 20:40:43 41° S
Cosmos 2219 Rocket 2.5 20:35:50 10° NNW 20:40:12 52° N 20:40:12 52° N
Cosmos 1726 4.3 20:40:00 10° SW 20:43:08 25° WNW 20:46:15 10° NNW
Gbstr 26 Del rocket 4.4 20:40:35 10° NW 20:44:51 43° N 20:44:51 43° N
USA 267 3.7 20:56:35 40° NNE 20:58:47 58° NW 21:05:09 10° WSW
Cosmos 2237 Rocket 4.0 21:07:05 10° NNW 21:09:07 23° N 21:09:07 23° N
Cosmos 2227 Rocket 4.2 21:10:46 10° SSW 21:12:05 18° SSW 21:12:05 18° SSW
Cosmos 2333 Rocket 4.1 21:34:21 10° NW 21:37:00 26° NW 21:37:00 26° NW
